Weather History for Jamestown, NY

Change the Weather History Date:

Saturday, March 9, 2013

  Actual Average Record
Temperature  
Mean Temperature 30 °F -  
Max Temperature 44 °F 41 °F 66 °F (2002)
Min Temperature 17 °F 17 °F -16 °F (1984)
Degree Days  
Heating Degree Days 34    
Moisture  
Dew Point 22 °F    
Average Humidity 69    
Maximum Humidity 100    
Minimum Humidity 39    
Precipitation  
Precipitation 0.00 in - - ()
Sea Level Pressure  
Sea Level Pressure 30.29 in    
Wind  
Wind Speed 3 mph (East)    
Max Wind Speed 9 mph    
Max Gust Speed -    
Visibility 8 miles    
Events      
Averages and records for this station are not official NWS values.
T = Trace of Precipitation, MM = Missing Value Source: NWS Daily Summary

Daily Weather History Graph

Daily Weather History Graph

Search for Another Location

Airport:

Trip Planner

Search our weather history database for the weather conditions in past years. The results will help you decide how hot, cold, wet, or windy it might be!

Date:

Astronomy

Mar. 09, 2013 Rise Set
Actual Time 6:38 AM EST 6:16 PM EST
Civil Twilight 6:10 AM EST 6:44 PM EST
Nautical Twilight 5:38 AM EST 7:17 PM EST
Astronomical Twilight 5:05 AM EST 7:50 PM EST
Moon 5:03 AM EST (3/9) 4:15 PM EST (3/9)
Length of Visible Light 12h 34m
Length of Day
11h 38m
Waning Crescent, 5% of the Moon is Illuminated
Mar 9
Waning Crescent
Mar 11
New
Mar 19
First Quarter
Mar 27
Full
Apr 3
Last Quarter

Hourly Weather History & Observations

Time (EST) Temp. Windchill Dew Point Humidity Pressure Visibility Wind Dir Wind Speed Gust Speed Precip Events Conditions
12:15 AM 26.6 °F 21.2 °F 19.4 °F 74% 30.35 in 10.0 mi NNW 4.6 mph - N/A   Clear
12:35 AM 26.6 °F 20.0 °F 21.2 °F 80% 30.36 in 10.0 mi NW 5.8 mph - N/A   Clear
12:55 AM 26.6 °F 20.0 °F 23.0 °F 86% 30.36 in 10.0 mi NW 5.8 mph - N/A   Clear
1:15 AM 26.6 °F 21.2 °F 24.8 °F 93% 30.36 in 10.0 mi NNW 4.6 mph - N/A   Clear
1:35 AM 26.6 °F 20.0 °F 24.8 °F 93% 30.36 in 10.0 mi NNW 5.8 mph - N/A   Clear
1:55 AM 26.6 °F 20.0 °F 24.8 °F 93% 30.36 in 10.0 mi NNW 5.8 mph - N/A   Clear
2:15 AM 26.6 °F 20.0 °F 24.8 °F 93% 30.35 in 8.0 mi NNW 5.8 mph - N/A   Clear
2:35 AM 26.6 °F 20.0 °F 23.0 °F 86% 30.34 in 7.0 mi North 5.8 mph - N/A   Clear
2:55 AM 26.6 °F 20.0 °F 24.8 °F 93% 30.34 in 7.0 mi North 5.8 mph - N/A   Clear
3:15 AM 24.8 °F 19.1 °F 23.0 °F 93% 30.33 in 8.0 mi NNW 4.6 mph - N/A   Clear
3:35 AM 24.8 °F 19.1 °F 21.2 °F 86% 30.32 in 7.0 mi North 4.6 mph - N/A   Clear
3:55 AM 24.8 °F - 24.8 °F 100% 30.32 in 3.0 mi Calm Calm - N/A   Clear
4:15 AM 17.6 °F - 17.6 °F 100% 30.32 in 3.0 mi Calm Calm - N/A   Clear
4:35 AM 19.4 °F - 19.4 °F 100% 30.32 in 5.0 mi Calm Calm - N/A   Mostly Cloudy
4:55 AM 21.2 °F - 19.4 °F 93% 30.32 in 3.0 mi Calm Calm - N/A   Overcast
5:15 AM 21.2 °F 14.9 °F 19.4 °F 93% 30.33 in 0.5 mi West 4.6 mph - N/A   Overcast
5:35 AM 21.2 °F - 19.4 °F 93% 30.32 in 0.2 mi Calm Calm - N/A   Overcast
5:55 AM 21.2 °F - 19.4 °F 93% 30.33 in 0.2 mi Calm Calm - N/A   Overcast
6:15 AM 19.4 °F - 17.6 °F 93% 30.34 in 0.2 mi Calm Calm - N/A   Overcast
6:35 AM 19.4 °F - 17.6 °F 93% 30.34 in 0.2 mi Calm Calm - N/A   Overcast
6:55 AM 19.4 °F - 17.6 °F 93% 30.35 in 0.2 mi Calm Calm - N/A   Overcast
7:15 AM 17.6 °F - 15.8 °F 93% 30.36 in 0.2 mi Calm Calm - N/A   Overcast
7:35 AM 17.6 °F - 15.8 °F 93% 30.36 in 0.2 mi Calm Calm - N/A   Overcast
7:55 AM 19.4 °F - 17.6 °F 93% 30.36 in 0.2 mi Calm Calm - N/A   Overcast
8:15 AM 17.6 °F 12.3 °F 15.8 °F 93% 30.37 in 0.2 mi SW 3.5 mph - N/A   Overcast
8:35 AM 21.2 °F - 19.4 °F 93% 30.37 in 3.0 mi Calm Calm - N/A   Mostly Cloudy
8:55 AM 21.2 °F - 19.4 °F 93% 30.37 in 2.5 mi Calm Calm - N/A   Partly Cloudy
9:15 AM 23.0 °F - 23.0 °F 100% 30.37 in 5.0 mi Calm Calm - N/A   Clear
9:35 AM 26.6 °F - 24.8 °F 93% 30.36 in 9.0 mi Calm Calm - N/A   Clear
9:55 AM 26.6 °F - 24.8 °F 93% 30.35 in 9.0 mi Calm Calm - N/A   Clear
10:15 AM 28.4 °F - 24.8 °F 86% 30.35 in 8.0 mi Calm Calm - N/A   Clear
10:35 AM 28.4 °F - 28.4 °F 100% 30.34 in 10.0 mi Calm Calm - N/A   Clear
10:55 AM 28.4 °F 23.3 °F 24.8 °F 86% 30.33 in 10.0 mi ESE 4.6 mph - N/A   Clear
11:15 AM 35.6 °F 29.9 °F 24.8 °F 65% 30.33 in 10.0 mi East 6.9 mph - N/A   Clear
11:35 AM 35.6 °F - 24.8 °F 65% 30.33 in 10.0 mi Calm Calm - N/A   Clear
11:55 AM 37.4 °F 33.8 °F 24.8 °F 60% 30.32 in 10.0 mi SE 4.6 mph - N/A   Clear
12:15 PM 33.8 °F - 24.8 °F 70% 30.31 in 10.0 mi Calm Calm - N/A   Clear
12:35 PM 35.6 °F 31.7 °F 24.8 °F 65% 30.32 in 10.0 mi South 4.6 mph - N/A   Clear
12:55 PM 32.0 °F - 23.0 °F 69% 30.32 in 10.0 mi Calm Calm - N/A   Clear
1:15 PM 39.2 °F - 24.8 °F 56% 30.31 in 10.0 mi Calm Calm - N/A   Clear
1:35 PM 42.8 °F - 23.0 °F 46% 30.30 in 10.0 mi Calm Calm - N/A   Clear
1:55 PM 42.8 °F - 24.8 °F 49% 30.28 in 10.0 mi Calm Calm - N/A   Clear
2:15 PM 44.6 °F - 23.0 °F 43% 30.27 in 10.0 mi Calm Calm - N/A   Clear
2:35 PM 42.8 °F - 23.0 °F 46% 30.27 in 10.0 mi Calm Calm - N/A   Clear
2:55 PM 42.8 °F 41.1 °F 24.8 °F 49% 30.27 in 10.0 mi East 3.5 mph - N/A   Clear
3:15 PM 44.6 °F 42.2 °F 24.8 °F 46% 30.26 in 10.0 mi ENE 4.6 mph - N/A   Clear
3:35 PM 42.8 °F - 23.0 °F 46% 30.26 in 10.0 mi Calm Calm - N/A   Clear
3:55 PM 44.6 °F 43.1 °F 23.0 °F 43% 30.25 in 10.0 mi ENE 3.5 mph - N/A   Clear
4:15 PM 44.6 °F - 23.0 °F 43% 30.24 in 10.0 mi Calm Calm - N/A   Clear
4:35 PM 44.6 °F 42.2 °F 24.8 °F 46% 30.24 in 10.0 mi ENE 4.6 mph - N/A   Clear
4:55 PM 44.6 °F 40.7 °F 23.0 °F 43% 30.24 in 10.0 mi ENE 6.9 mph - N/A   Clear
5:15 PM 44.6 °F 41.4 °F 23.0 °F 43% 30.23 in 10.0 mi ENE 5.8 mph - N/A   Clear
5:35 PM 44.6 °F 41.4 °F 23.0 °F 43% 30.23 in 10.0 mi ENE 5.8 mph - N/A   Clear
5:55 PM 44.6 °F 42.2 °F 23.0 °F 43% 30.23 in 10.0 mi ENE 4.6 mph - N/A   Clear
6:15 PM 44.6 °F 42.2 °F 21.2 °F 39% 30.23 in 10.0 mi East 4.6 mph - N/A   Clear
6:35 PM 44.6 °F 42.2 °F 21.2 °F 39% 30.23 in 10.0 mi ENE 4.6 mph - N/A   Clear
6:55 PM 44.6 °F 42.2 °F 21.2 °F 39% 30.23 in 10.0 mi East 4.6 mph - N/A   Clear
7:15 PM 44.6 °F 41.4 °F 21.2 °F 39% 30.23 in 10.0 mi ESE 5.8 mph - N/A   Clear
7:35 PM 42.8 °F 39.3 °F 21.2 °F 42% 30.22 in 10.0 mi ESE 5.8 mph - N/A   Clear
7:55 PM 39.2 °F 35.9 °F 21.2 °F 49% 30.21 in 10.0 mi ESE 4.6 mph - N/A   Clear
8:15 PM 42.8 °F 41.1 °F 21.2 °F 42% 30.21 in 10.0 mi ESE 3.5 mph - N/A   Clear
8:35 PM 41.0 °F - 21.2 °F 45% 30.21 in 10.0 mi Calm Calm - N/A   Clear
8:55 PM 41.0 °F 38.0 °F 21.2 °F 45% 30.21 in 10.0 mi South 4.6 mph - N/A   Clear
9:15 PM 39.2 °F 35.9 °F 21.2 °F 49% 30.21 in 10.0 mi SSE 4.6 mph - N/A   Clear
9:35 PM 39.2 °F 35.0 °F 21.2 °F 49% 30.20 in 10.0 mi SSE 5.8 mph - N/A   Clear
9:55 PM 35.6 °F 30.7 °F 21.2 °F 56% 30.20 in 10.0 mi SSE 5.8 mph - N/A   Clear
10:15 PM 39.2 °F 34.2 °F 21.2 °F 49% 30.19 in 10.0 mi SE 6.9 mph - N/A   Clear
10:35 PM 39.2 °F 35.0 °F 21.2 °F 49% 30.19 in 10.0 mi SSE 5.8 mph - N/A   Clear
10:55 PM 37.4 °F 32.1 °F 21.2 °F 52% 30.19 in 10.0 mi South 6.9 mph - N/A   Clear
11:15 PM 37.4 °F 32.1 °F 19.4 °F 48% 30.18 in 10.0 mi South 6.9 mph - N/A   Clear
11:35 PM 39.2 °F 33.6 °F 21.2 °F 49% 30.17 in 10.0 mi South 8.1 mph - N/A   Clear
11:55 PM 39.2 °F 33.0 °F 19.4 °F 45% 30.17 in 10.0 mi South 9.2 mph - N/A   Clear